Skip Page Navigation
NASA JPL Caltech
NASA Logo - Jet Propulsion Laboratory + View the NASA Portal
+ Center for Near-Earth Object Studies
JPL Home Earth Solar System Stars & Galaxies Technology
JPL Solar System Dynamics
BODIES ORBITS EPHEMERIDES TOOLS PHYSICAL DATA DISCOVERY FAQ SITE MAP
JPL Small-Body Database Browser
Search: [ help ]  
135644 (2002 JZ109)
Classification: Main-belt Asteroid          SPK-ID: 2135644
Ephemeris | Orbit Diagram | Orbital Elements | Mission Design | Physical Parameters | Discovery Circumstances | Close-Approach Data ]

[ show orbit diagram ]
Orbital Elements at Epoch 2459396.5 (2021-Jul-01.0) TDB
Reference: JPL 17 (heliocentric ecliptic J2000)
 Element Value Uncertainty (1-sigma)   Units 
e .06021396366640089 4.4059e-08  
a 2.320054118350569 1.2999e-08 au
q 2.180354463964124 1.0544e-07 au
i 5.708499510216501 5.1634e-06 deg
node 277.152089089068 4.7398e-05 deg
peri 345.5961175434974 6.425e-05 deg
M 120.8578014290194 4.2502e-05 deg
tp 2458963.170965769870
(2020-Apr-23.67096577)
0.00015252 TDB
period 1290.760302424215
3.53
1.0848e-05
2.97e-08
d
yr
n .2789053857047458 2.344e-09 deg/d
Q 2.459753772737014 1.3782e-08 au
  Orbit Determination Parameters
   # obs. used (total)      504  
   data-arc span      7621 days (20.87 yr)  
   first obs. used      1999-09-07  
   last obs. used      2020-07-19  
   planetary ephem.      DE441  
   SB-pert. ephem.      SB441-N16  
   condition code      0  
   norm. resid. RMS      .60339  
   source      ORB  
   producer      Otto Matic  
   solution date      2021-Apr-13 18:13:57  

Additional Information
 Earth MOID = 1.16502 au 
 Jupiter MOID = 2.58197 au 
 T_jup = 3.569 
[ show covariance matrix ]

Ephemeris | Orbit Diagram | Orbital Elements | Mission Design | Physical Parameters | Discovery Circumstances | Close-Approach Data ]

Physical Parameter Table
Parameter Symbol Value Units Sigma Reference Notes
absolute magnitude H 16.2   n/a MPO266449  

135644 (2002 JZ109)          Discovered 2002-May-11 by LINEAR at Socorro
Reference: 20060907/Numbers.arcLast Updated: 2006-09-10

[ show close-approach data ]
Ephemeris | Orbit Diagram | Orbital Elements | Mission Design | Physical Parameters | Discovery Circumstances | Close-Approach Data ]
ABOUT SSD CREDITS/AWARDS PRIVACY/COPYRIGHT GLOSSARY LINKS
FirstGov 2021-Jul-24 18:49 UT
(server date/time)  
NASA Home Page
Site Manager:   Ryan S. Park
Webmaster  Alan B. Chamberlin